Wind_Speed
9 8 8 8 7 8 8 8 8 8 14 17 14 14 25 30 31 31 32 33 31 29 27 25 27 28 27 26 25 25 23 20 21 19 18 19 19 19 20 18 17 17 18 18 17 17 15 14 16 16 15 15 14 14 14 13 12 12 12 12 12 11 10
10 8 8 9 8 8 12 15 14 11 16 24 22 16 17 26 32 32 33 34 32 30 28 25 26 27 27 26 24 24 24 22 22 20 18 19 19 19 19 19 18 17 17 17 16 16 15 14 16 18 16 15 15 14 15 14 12 13 13 13 13 11 10
8 8 7 8 9 8 11 14 16 17 19 24 26 20 14 16 28 33 34 34 32 30 29 26 26 26 26 25 24 24 24 22 22 22 20 19 19 19 18 18 18 16 15 16 15 15 15 14 16 18 16 16 16 15 14 14 13 13 13 13 13 11 11
5 4 4 4 6 6 7 10 13 16 18 16 17 17 10 7 19 28 32 35 33 31 30 27 26 26 25 25 24 24 25 24 23 23 22 20 19 18 18 18 18 17 16 15 15 14 14 14 15 16 15 14 16 15 14 14 14 13 13 12 13 12 11
7 5 4 3 3 4 3 8 13 15 14 10 11 18 16 10 13 20 26 31 31 30 30 27 25 26 25 25 25 24 25 25 24 23 23 22 20 19 19 19 18 18 17 16 15 15 15 15 15 16 15 15 15 16 15 14 14 14 13 13 13 12 11
7 4 3 3 2 2 2 2 8 13 16 16 16 22 21 15 16 20 24 28 29 30 30 28 25 24 24 24 24 23 24 25 25 24 24 23 21 20 20 20 19 18 18 17 16 16 16 18 18 17 17 16 16 17 16 15 15 14 14 14 13 12 12
6 4 4 6 5 3 3 4 6 9 14 15 12 14 16 15 17 19 20 22 26 30 31 29 27 25 23 24 23 22 23 25 26 25 25 24 22 22 21 20 20 19 19 18 18 17 17 18 19 19 19 18 17 17 17 16 16 15 15 14 13 13 12
7 7 9 9 9 8 5 4 7 9 12 14 10 6 7 9 10 11 9 8 10 14 18 21 24 24 22 24 24 19 19 24 26 25 25 25 23 23 22 22 21 20 20 19 20 20 18 18 19 19 19 19 19 18 17 18 18 17 17 16 15 14 13
9 10 11 11 11 10 10 9 10 12 14 14 12 12 13 11 11 11 7 7 7 9 12 14 18 20 20 23 24 18 15 18 23 25 24 24 24 23 23 23 22 21 21 21 21 22 22 21 20 20 20 19 20 20 19 19 19 19 19 19 17 16 16
9 9 11 11 11 11 12 13 12 11 13 12 11 13 15 14 14 14 14 15 13 14 15 15 17 19 18 20 21 19 16 15 18 23 25 24 24 23 22 24 23 22 23 22 22 22 23 23 23 21 21 21 20 20 21 21 21 21 21 21 20 19 18
8 8 9 10 10 10 11 12 12 12 12 13 12 12 12 13 14 15 13 10 11 15 15 15 16 16 15 17 17 15 15 14 14 18 22 21 22 22 22 23 24 24 24 24 23 23 23 24 25 24 23 23 22 22 22 22 22 23 22 22 21 21 20
8 8 8 10 10 9 8 9 11 13 14 14 15 13 11 11 12 13 14 12 11 13 13 11 12 12 11 14 17 16 17 16 16 14 17 19 19 20 19 19 21 23 25 26 24 23 24 24 25 25 25 25 24 23 23 23 22 23 24 23 22 21 20
8 8 8 9 9 9 9 9 10 13 14 15 16 17 14 12 12 12 13 11 7 6 8 8 9 11 9 8 12 15 15 14 16 19 20 20 19 19 18 16 16 17 20 26 28 25 23 25 26 27 26 27 27 26 24 24 24 24 24 24 23 22 22
9 9 10 10 10 10 10 9 9 12 14 15 17 20 19 17 16 16 16 13 9 4 5 7 8 8 8 7 9 11 11 12 14 20 21 20 18 18 19 18 16 13 12 18 28 30 26 24 26 29 28 27 28 29 27 26 25 25 25 24 24 23 23
10 11 11 12 11 10 9 8 8 10 13 14 17 18 19 19 17 16 17 15 13 9 4 5 7 6 6 7 9 10 9 10 14 18 19 18 18 18 21 22 19 17 13 11 18 28 31 28 26 28 31 29 28 30 30 28 28 28 27 27 26 26 26
11 11 12 12 11 10 9 8 9 10 13 15 16 15 15 17 17 16 17 16 15 15 12 7 6 6 7 8 7 6 6 7 12 17 17 18 18 18 21 23 21 21 21 15 12 17 26 30 29 27 30 33 31 30 31 31 30 30 30 30 29 29 29
11 10 11 10 9 9 9 9 10 12 14 17 16 14 14 16 16 17 17 16 17 17 15 12 10 8 8 8 7 7 7 8 9 12 14 16 16 15 15 17 18 20 24 24 17 12 16 25 31 30 30 32 34 33 33 33 32 31 30 31 31 31 31
9 8 9 9 8 8 8 8 10 12 14 16 18 17 16 16 16 16 16 16 16 16 15 14 13 11 10 9 8 8 7 7 7 9 10 12 13 13 12 14 16 17 21 26 25 19 16 18 24 29 31 31 34 35 34 34 34 33 31 30 31 32 32
9 8 7 7 7 7 7 8 10 12 13 15 17 19 17 16 16 15 16 17 17 16 17 17 15 12 10 10 10 10 9 7 6 6 7 8 8 9 10 12 13 14 15 20 24 24 22 18 17 20 25 28 31 34 35 35 34 34 33 31 31 32 33
10 8 7 6 6 6 8 9 11 13 14 15 17 18 17 17 17 15 17 19 18 17 18 17 16 14 12 11 11 10 9 8 7 5 3 4 5 7 7 8 9 10 12 15 20 23 25 23 18 16 17 19 22 27 32 34 35 35 35 33 32 32 34
10 9 7 5 5 6 9 11 12 14 14 14 16 17 16 16 17 16 17 19 18 17 17 16 16 16 15 15 14 12 10 8 7 7 5 2 1 4 6 7 8 9 11 13 17 20 23 25 24 22 19 17 17 18 21 25 28 30 33 34 34 33 34
8 9 8 7 7 8 10 10 11 13 13 13 15 18 17 16 16 15 15 16 17 17 16 16 15 15 15 16 15 14 12 11 10 10 7 4 3 3 3 4 5 7 9 12 14 17 19 22 24 24 22 20 19 19 20 21 21 21 24 28 32 35 36
9 10 11 11 11 10 10 11 10 12 12 12 13 17 18 16 15 16 15 15 15 16 15 15 15 15 15 14 14 14 13 12 12 11 9 7 7 7 7 5 5 6 7 9 11 13 15 17 19 19 20 21 21 21 21 23 25 23 21 20 23 28 34
13 15 14 14 12 10 10 13 13 13 13 14 13 15 17 17 15 15 16 15 14 15 15 15 13 13 13 12 11 12 12 12 12 12 11 9 8 9 8 7 6 6 6 7 9 10 11 14 16 17 18 20 22 22 22 24 26 26 25 23 21 20 24
15 17 16 13 12 12 13 14 14 14 15 17 17 15 15 16 15 14 14 14 13 14 15 15 13 13 13 12 10 9 10 10 11 11 10 9 8 7 7 7 7 7 6 6 8 9 9 10 12 15 17 19 20 22 22 23 25 25 26 26 25 24 23
14 16 15 14 14 14 15 14 15 16 17 18 17 16 15 15 14 13 13 12 12 13 14 14 13 12 13 12 9 9 10 11 9 8 8 7 7 7 5 6 6 6 7 7 6 7 8 9 10 12 15 16 17 18 19 21 22 21 20 21 22 24 24
16 15 15 15 15 15 15 15 16 16 16 16 15 14 15 15 13 12 11 11 11 12 12 12 12 11 11 11 10 10 11 12 10 8 6 5 7 7 5 5 6 6 6 6 6 6 7 9 10 12 15 15 15 15 16 17 16 14 15 16 16 17 18
15 14 15 17 17 16 15 16 16 15 15 15 14 13 14 14 12 11 11 11 11 12 12 11 11 11 10 9 9 11 12 11 11 11 10 8 8 8 6 5 6 7 6 5 5 6 7 8 9 12 14 14 12 12 11 10 10 12 15 18 18 16 16
13 13 14 16 17 16 15 16 15 14 14 14 14 13 13 13 12 12 11 12 12 11 12 13 13 13 10 8 9 12 13 12 11 13 14 13 11 8 7 7 8 8 8 6 6 8 8 8 8 10 11 12 12 11 8 7 11 16 20 23 24 23 21
13 12 12 14 16 14 13 13 13 13 14 14 13 13 13 13 13 13 12 12 12 12 13 14 14 13 12 11 12 13 13 13 13 14 15 16 14 10 9 10 10 10 9 8 8 9 10 10 10 10 11 12 12 10 7 8 12 16 21 25 26 23 19
13 12 11 12 12 11 10 10 11 12 13 13 12 12 13 13 14 14 13 13 13 13 14 15 14 14 14 14 14 14 14 14 14 14 15 16 15 12 13 14 12 11 10 8 7 8 10 13 14 12 11 11 11 10 9 8 10 12 15 17 18 17 15
14 12 9 8 8 7 7 8 9 10 11 11 11 11 11 12 12 13 14 14 13 13 15 15 15 14 14 14 15 15 15 15 15 15 15 15 15 14 15 16 14 12 11 10 9 9 10 11 11 10 8 8 8 9 9 9 10 12 12 11 11 12 13
11 9 7 6 5 6 7 7 8 9 9 9 9 10 10 10 10 11 12 13 12 12 14 14 14 14 15 15 15 16 16 15 16 17 17 17 16 14 13 13 12 11 11 11 12 10 8 8 9 8 8 8 8 8 9 10 11 12 12 11 9 10 11
9 8 7 6 6 7 7 8 8 9 9 9 9 9 8 8 8 9 11 11 11 12 13 13 14 15 15 16 17 17 17 17 17 17 17 17 17 15 13 12 12 11 10 10 10 9 9 11 12 13 12 12 13 14 15 15 15 15 13 11 9 9 10
8 8 9 8 8 9 8 8 9 9 9 9 9 10 10 10 9 9 11 11 12 12 12 13 13 14 16 17 18 19 19 18 18 17 18 18 18 17 15 14 15 15 16 15 14 13 14 16 17 16 15 15 16 16 18 20 20 18 15 13 12 13 14
9 9 9 9 8 8 7 7 9 9 8 10 11 12 13 13 13 12 12 12 13 13 13 14 14 14 14 15 16 18 20 21 21 20 20 19 19 19 18 18 16 15 16 17 17 16 17 19 19 17 15 15 16 15 16 18 19 17 17 16 16 17 19
9 9 8 8 7 7 7 7 8 9 11 12 12 13 14 14 14 14 13 13 14 13 13 14 16 15 13 12 13 15 18 21 22 22 22 21 20 18 18 18 16 14 14 14 15 15 15 16 17 16 14 15 16 16 16 16 16 15 15 15 15 17 18
8 8 7 7 7 7 6 7 9 11 12 12 12 13 14 14 15 15 14 14 15 15 14 14 15 15 15 14 13 15 16 18 20 22 23 23 22 19 18 18 18 18 16 14 14 15 15 15 15 15 15 16 17 18 19 17 14 14 15 15 15 16 16
Wind_Direction
157 170 164 163 177 162 168 200 195 166 177 207 238 212 183 175 171 173 174 178 181 182 186 189 187 188 189 190 191 191 189 188 189 189 188 190 190 189 187 185 188 191 191 197 199 201 204 201 203 205 200 204 207 201 200 197 194 194 190 187 190 191 188
155 171 172 170 183 162 162 190 200 187 188 199 211 227 209 180 171 173 175 178 182 183 186 188 188 190 191 192 192 193 194 192 192 193 192 191 192 195 193 191 193 195 196 201 200 202 207 206 207 207 202 204 209 206 202 203 203 200 193 191 195 198 198
146 164 170 170 178 168 160 173 185 187 192 200 205 220 235 191 173 174 176 177 179 182 184 188 190 192 193 195 195 196 196 196 195 196 197 194 193 197 198 196 197 199 200 202 200 201 207 210 210 207 204 205 208 209 208 207 209 210 204 199 202 205 202
101 122 119 132 152 157 158 165 180 187 187 197 207 214 234 212 179 175 176 177 177 180 183 186 190 192 194 197 199 199 199 199 200 200 201 198 197 200 200 200 200 201 203 202 201 202 204 207 205 202 205 207 206 210 213 210 210 216 215 210 212 211 204
71 58 51 66 102 115 133 172 187 190 182 176 193 201 202 201 184 170 171 176 176 177 182 185 188 191 193 196 199 201 202 202 203 203 204 202 201 203 203 205 205 203 204 202 201 205 205 206 205 204 208 209 209 213 214 211 212 216 217 216 219 218 211
83 68 55 62 93 121 85 149 178 183 186 180 184 195 193 188 184 170 165 172 175 175 179 182 185 188 192 195 198 202 204 205 205 205 205 203 204 206 206 210 211 207 207 205 201 206 210 210 207 207 210 210 213 215 213 213 216 219 220 218 222 224 218
89 95 79 65 62 95 124 158 158 156 167 163 164 190 187 173 175 170 164 169 173 176 180 184 184 186 191 193 195 201 206 207 207 208 209 206 206 209 208 210 213 211 211 210 205 206 213 213 208 208 211 211 214 216 215 215 216 222 227 224 224 227 224
52 63 66 60 49 47 65 126 129 112 118 126 122 133 133 113 105 108 112 112 122 154 180 190 189 188 191 190 190 199 209 210 210 210 211 210 210 213 210 208 213 212 212 215 211 206 210 212 209 210 213 214 215 217 218 219 218 221 227 228 226 227 227
43 50 60 59 54 49 44 58 81 84 90 104 105 94 98 108 104 103 137 160 131 148 188 206 203 200 198 190 190 196 201 205 210 211 213 213 213 216 213 209 212 212 212 217 215 210 211 213 211 213 217 220 218 217 220 221 220 220 224 228 230 229 228
50 49 55 58 56 56 51 51 59 65 73 86 93 95 104 123 137 146 176 194 185 179 195 213 218 217 208 193 195 204 200 197 205 208 212 216 216 218 217 211 212 215 214 216 216 213 214 215 215 215 220 222 219 219 221 223 222 221 221 227 232 232 230
60 54 56 60 58 57 55 53 52 53 63 73 78 90 106 121 136 142 151 172 181 181 192 209 216 219 216 205 208 219 215 213 219 209 205 212 218 220 222 218 216 217 216 216 218 217 216 218 218 217 220 222 221 219 221 223 224 222 221 225 231 234 234
61 59 60 64 63 59 58 59 59 58 63 67 66 71 94 119 128 126 129 147 167 173 179 194 203 207 212 213 216 222 223 232 253 240 205 203 214 218 220 221 220 221 218 216 219 220 219 219 219 218 219 222 223 223 224 223 224 226 225 224 228 233 235
73 66 66 67 65 60 56 56 57 57 60 65 63 60 70 92 100 101 114 133 154 176 183 189 203 210 215 223 222 220 218 226 256 258 228 210 215 219 216 214 217 222 221 217 217 220 223 222 219 219 221 222 223 225 228 226 225 227 228 226 227 232 236
91 79 70 67 65 62 59 55 51 51 55 61 63 59 59 68 75 80 90 103 119 156 201 197 198 207 216 230 229 223 220 215 237 254 244 225 225 229 223 218 216 220 225 221 215 215 220 225 222 219 221 225 226 225 228 230 228 228 228 227 228 230 234
83 80 74 68 64 62 62 63 59 56 58 63 65 62 58 59 62 66 71 80 92 90 94 170 175 174 189 216 229 224 225 224 228 242 244 235 234 235 229 224 225 229 235 238 224 215 215 221 224 221 218 222 227 227 226 228 229 231 232 231 231 230 231
70 71 73 72 69 64 60 59 57 57 63 65 64 66 67 63 59 58 57 59 63 62 62 88 123 141 167 194 213 205 201 221 227 231 235 234 232 230 227 227 233 237 233 234 241 229 218 217 220 222 219 218 222 226 225 225 228 231 233 234 234 233 232
69 61 61 64 68 68 64 56 45 45 56 58 51 54 67 67 61 57 54 52 53 53 55 68 82 94 118 145 164 167 179 198 209 216 224 229 230 231 232 235 240 242 232 225 230 246 239 225 220 221 221 219 219 222 223 224 226 229 232 235 236 235 234
76 65 55 49 50 61 65 64 53 45 54 61 52 46 54 64 63 60 58 57 55 54 55 63 70 71 75 90 109 120 143 171 183 192 202 213 226 235 241 241 237 236 231 225 222 230 246 242 229 225 225 221 219 220 222 224 225 227 230 234 236 237 236
84 72 60 47 39 43 47 61 70 60 58 70 65 50 51 61 62 63 68 65 61 60 61 64 70 72 69 68 76 85 95 116 144 174 192 201 217 233 243 243 237 234 234 229 225 228 237 246 245 237 232 227 221 220 222 224 226 227 228 231 235 237 237
99 86 72 56 39 33 31 44 66 66 60 71 72 57 52 57 57 64 74 69 62 62 62 62 65 65 64 64 65 69 75 85 99 112 146 195 214 229 245 256 253 248 248 242 237 236 239 243 249 250 244 236 228 222 222 225 228 230 230 231 234 236 237
107 103 90 69 43 31 29 36 59 65 57 66 77 66 56 55 54 63 76 72 63 60 59 59 59 56 56 59 57 56 60 63 60 59 62 82 206 236 249 263 268 261 259 254 248 245 244 244 247 249 248 244 239 233 229 228 230 232 234 235 236 236 237
103 107 104 95 71 40 24 29 60 71 57 60 83 81 66 58 54 57 72 79 71 60 55 55 53 49 49 50 47 46 50 52 48 45 40 26 13 3 332 311 303 286 274 266 259 256 255 251 251 254 255 252 249 248 245 241 239 240 240 240 240 239 240
93 99 97 92 83 61 31 21 49 73 58 47 78 91 79 67 58 51 57 71 72 62 53 52 51 47 45 46 42 40 44 46 46 48 44 28 13 12 8 354 343 333 308 287 274 266 262 262 265 269 270 267 263 259 256 251 248 251 255 256 252 249 247
73 81 77 69 67 63 43 25 36 63 56 33 51 82 80 70 63 51 47 53 61 58 47 42 42 40 39 42 42 38 41 45 44 46 50 41 25 18 15 8 357 343 323 302 291 280 272 271 273 274 275 275 270 267 266 261 257 258 263 268 272 274 270
59 68 67 56 49 49 48 35 30 46 47 30 34 52 62 63 62 50 39 39 46 52 44 33 29 27 24 29 38 32 30 39 42 43 46 39 25 16 9 6 6 357 340 316 298 292 287 281 278 276 276 277 275 273 271 269 268 269 271 275 281 288 293
56 58 58 53 44 41 45 38 26 31 35 30 31 37 42 52 56 45 34 31 34 42 39 25 17 14 10 15 26 19 11 16 26 35 38 22 5 3 356 351 355 356 354 345 326 312 300 288 285 282 279 280 283 282 276 274 277 283 287 289 292 292 293
57 51 50 52 50 40 35 30 23 23 25 25 28 31 30 36 42 35 27 27 29 29 25 15 7 3 2 8 14 7 356 354 356 5 10 346 332 335 336 340 345 342 343 346 343 334 312 293 285 277 273 277 284 286 287 288 289 288 285 283 289 299 303
56 46 42 49 52 41 27 24 20 13 13 21 26 24 19 19 24 21 17 24 29 18 4 358 354 350 347 353 1 359 352 346 339 338 339 332 327 324 316 316 332 337 331 328 336 334 316 302 295 282 272 271 276 284 294 296 282 270 269 267 267 276 288
56 43 38 46 50 39 23 18 11 1 7 20 22 17 12 8 8 9 12 22 23 7 352 350 350 350 350 350 350 347 345 345 339 330 324 320 319 324 324 314 316 322 316 311 323 321 310 306 306 295 285 279 278 282 283 272 267 269 270 266 259 259 268
68 52 43 47 47 34 18 11 1 357 7 16 14 8 6 4 2 2 6 11 6 355 354 355 353 350 351 349 344 338 336 338 336 328 324 320 311 303 308 314 313 308 305 308 316 311 305 311 310 297 291 292 290 289 282 268 270 273 272 270 267 265 269
85 69 52 47 41 28 15 5 357 358 6 8 5 1 360 360 359 356 358 359 357 354 355 354 349 345 342 339 337 335 332 329 325 321 322 324 317 302 301 307 307 299 294 296 305 306 308 315 311 297 289 293 295 298 297 286 280 279 278 279 277 271 271
87 76 62 49 38 29 21 7 357 357 358 358 359 357 353 354 352 349 349 351 351 351 349 349 349 346 341 335 331 329 327 321 318 316 314 317 317 307 298 297 297 294 288 281 286 299 310 320 322 314 305 308 313 315 313 307 302 302 305 305 297 283 278
92 88 81 65 47 39 28 7 355 353 350 350 354 352 348 348 345 341 341 344 346 344 341 343 344 340 336 332 326 323 320 315 312 311 310 313 315 312 307 305 301 293 286 283 286 289 295 316 331 329 323 325 326 323 317 311 310 313 319 326 323 306 291
103 101 93 74 54 43 28 9 358 351 342 337 340 342 341 341 339 337 337 339 340 339 336 338 340 338 335 331 326 324 321 316 312 311 314 319 324 324 329 336 333 322 312 308 305 299 298 308 313 312 310 308 305 303 301 296 293 294 300 310 312 301 295
96 89 82 69 51 38 24 3 343 329 323 331 346 352 351 349 347 343 339 336 334 333 332 333 335 334 332 330 327 327 327 326 325 324 323 325 327 328 327 326 325 324 321 317 314 309 305 304 305 306 307 304 301 297 292 288 287 284 282 284 283 277 275
86 76 66 57 41 22 360 335 323 323 337 356 2 357 352 350 347 343 338 334 331 329 329 327 323 320 321 323 324 325 327 328 329 327 324 321 318 316 312 309 308 312 314 311 307 303 299 296 297 300 302 303 303 299 293 293 296 291 281 277 276 274 274
76 68 53 40 23 355 331 331 347 358 1 1 357 350 345 343 340 337 334 331 328 324 322 322 320 314 311 314 318 321 323 324 323 321 320 318 313 307 304 307 311 314 313 309 304 304 305 302 298 294 294 296 300 301 301 303 304 300 293 286 282 280 280
58 48 35 16 355 339 342 5 12 3 354 348 344 339 335 332 331 331 330 330 331 328 322 318 317 315 314 315 315 315 313 312 313 315 315 314 312 309 308 311 312 311 311 311 308 306 306 304 298 293 293 292 292 294 298 301 304 308 308 301 292 289 289
Height
782 784 785 788 789 791 792 793 797 800 801 804 806 806 807 808 811 814 817 820 823 826 830 832 834 836 838 840 841 843 845 846 849 850 852 853 854 855 856 857 858 859 860 862 863 863 864 865 866 866 867 867 868 868 868 867 867 868 868 868 868 868 868
781 784 785 787 788 790 791 791 795 798 799 801 802 805 807 806 808 811 814 818 821 824 828 831 833 835 837 839 841 843 844 846 848 850 851 853 854 855 856 857 858 859 860 861 862 863 864 865 865 866 867 867 867 868 868 867 867 867 868 868 868 868 868
781 783 783 785 786 788 790 791 795 798 799 800 801 804 808 807 807 809 811 815 819 822 826 829 831 834 836 839 840 842 844 845 847 849 851 852 853 855 856 857 858 858 859 860 861 862 863 864 864 865 866 867 867 867 867 867 867 867 868 868 868 868 868
783 783 782 784 785 786 789 791 794 796 798 802 803 805 808 809 809 808 809 812 815 819 822 825 828 831 834 836 838 841 842 844 846 847 849 851 853 854 855 856 857 858 859 859 860 861 862 863 864 864 865 866 867 867 867 867 867 868 868 868 868 868 868
786 785 785 786 786 787 789 790 792 794 798 802 803 805 807 809 810 808 809 811 812 815 818 821 825 827 831 833 836 838 840 842 844 846 848 849 851 853 854 855 856 857 858 858 859 860 861 862 863 863 864 865 866 866 867 867 867 867 868 868 868 868 868
789 789 788 788 788 788 788 790 791 791 795 798 800 802 803 804 806 805 806 808 810 811 814 817 821 824 828 830 833 836 838 840 842 844 846 847 849 851 852 854 855 855 857 857 858 859 859 860 861 862 863 864 865 865 866 867 867 867 867 867 868 868 868
790 790 790 788 788 788 788 791 792 790 792 796 799 801 800 800 802 803 805 807 808 809 812 815 819 822 825 828 831 834 835 838 840 842 844 845 847 848 849 851 853 854 855 856 857 857 858 858 859 860 861 862 864 864 865 866 866 866 866 867 867 867 868
791 791 791 791 790 789 789 791 792 790 792 797 802 803 801 802 804 806 809 811 813 815 817 819 820 822 824 826 829 832 834 836 838 840 842 843 845 846 847 849 850 851 853 853 854 855 856 857 857 858 859 861 862 863 864 864 865 866 866 866 866 867 867
793 793 793 793 793 792 792 791 791 792 793 797 801 802 802 803 805 808 809 811 814 818 821 822 822 822 823 824 827 829 832 834 836 838 840 842 843 844 845 846 847 849 850 851 852 853 854 855 856 857 857 859 860 861 862 863 863 864 864 865 865 865 866
797 797 796 796 797 796 796 794 793 794 794 796 798 800 801 802 804 806 806 806 810 814 819 821 822 823 822 823 825 828 830 832 834 836 838 840 842 842 843 844 845 846 847 848 849 850 851 853 854 855 856 856 858 859 860 861 861 862 863 863 864 864 864
801 801 800 800 800 800 799 798 797 797 797 798 798 799 800 801 803 805 807 810 811 813 816 819 821 822 822 823 825 827 829 831 833 835 835 838 840 841 841 842 842 843 844 845 847 848 849 850 852 853 854 855 856 857 858 859 860 860 861 862 862 862 863
803 803 803 803 803 802 802 802 801 800 800 801 801 800 801 802 803 806 809 812 811 812 815 817 818 820 821 822 822 824 827 829 833 836 834 834 836 837 838 839 839 840 841 843 844 846 847 848 849 851 852 853 854 855 856 857 858 858 859 860 861 861 861
805 805 805 805 804 804 804 803 803 802 803 803 803 803 804 804 805 807 809 810 809 811 813 815 817 818 820 822 822 823 825 827 834 838 834 830 832 833 834 835 835 836 838 839 841 843 844 845 846 848 849 851 852 853 854 855 856 856 857 858 859 860 860
807 806 806 805 805 806 806 806 806 804 804 804 804 805 805 806 808 808 809 809 810 811 812 813 816 817 820 822 822 823 824 825 832 837 835 830 829 831 832 832 833 833 834 835 836 838 840 842 843 845 846 848 849 851 852 853 854 854 855 856 857 858 858
807 807 807 807 807 808 808 809 808 807 807 806 806 806 806 807 809 809 810 810 811 812 813 813 815 816 818 819 820 821 821 821 825 832 833 830 828 829 830 830 831 832 833 833 833 834 836 838 840 841 843 844 846 847 849 850 851 852 853 854 854 855 856
809 809 809 808 809 809 809 810 810 810 810 809 809 809 809 809 810 810 811 811 811 812 812 813 814 815 816 817 818 818 818 819 823 827 829 827 826 827 827 828 829 830 831 832 833 833 833 835 836 838 839 840 842 843 845 846 847 848 850 851 852 853 853
813 812 811 810 810 810 811 811 812 812 812 812 812 811 811 811 811 811 812 811 811 812 812 813 814 814 815 816 817 818 819 821 824 825 825 825 825 825 825 826 827 828 829 829 830 832 832 833 833 834 835 837 838 839 840 841 843 844 846 847 849 850 851
816 816 815 813 812 812 813 814 814 814 814 814 814 813 813 813 813 813 813 813 813 813 814 814 813 815 817 818 819 820 821 822 823 823 823 822 822 823 823 824 825 825 826 825 826 829 830 831 831 832 832 833 834 836 837 838 839 841 843 844 845 847 848
818 819 817 817 815 814 814 815 816 816 816 816 816 815 815 815 815 815 815 815 816 815 815 816 816 818 819 819 820 820 820 821 822 821 821 819 819 820 821 822 823 823 823 822 823 825 827 828 830 830 831 831 832 833 834 835 837 838 839 840 841 843 844
820 820 820 819 818 817 816 816 817 818 818 818 818 818 817 817 817 817 817 817 817 817 817 818 818 819 820 819 820 819 820 821 820 820 819 817 817 817 818 820 821 820 820 820 821 822 824 826 827 829 830 830 830 831 832 833 834 835 837 837 838 839 840
820 821 822 822 821 820 819 818 818 819 819 820 820 820 820 819 819 819 819 819 819 819 819 819 819 820 820 820 820 820 820 820 819 818 817 816 815 815 815 816 817 817 817 817 818 820 821 823 825 826 828 829 829 830 830 832 833 834 835 835 835 836 836
819 821 822 823 823 822 821 820 820 820 820 821 822 822 822 821 821 821 821 821 821 821 820 820 820 820 821 820 820 820 820 819 818 817 816 815 815 815 814 814 813 814 815 815 817 819 820 822 823 824 826 827 827 827 828 829 830 832 833 833 833 834 833
819 821 822 823 824 824 823 823 822 822 822 822 823 823 823 823 823 822 823 823 823 823 823 822 822 822 822 822 821 821 820 819 818 817 816 815 814 814 814 814 813 813 814 815 816 818 819 820 821 823 823 824 824 825 825 825 827 829 830 831 832 832 832
820 822 823 824 826 825 825 825 824 824 824 824 824 825 824 825 825 824 824 824 824 824 824 823 823 824 823 823 822 822 821 820 819 818 817 816 815 815 815 814 814 814 815 815 816 816 817 818 819 820 821 821 821 822 822 823 824 826 827 829 830 831 831
822 824 825 826 827 827 827 826 826 826 825 825 825 826 825 826 826 826 825 825 825 825 824 824 824 823 823 823 823 822 821 820 819 818 818 817 817 816 816 815 815 815 815 815 815 815 816 816 817 818 818 819 819 820 820 821 822 824 825 826 827 829 830
825 826 827 828 828 828 828 828 828 827 827 827 827 827 827 827 827 827 827 826 826 826 825 825 824 823 823 823 822 822 821 821 820 819 818 818 817 816 816 816 815 815 814 814 814 814 815 815 816 816 817 817 818 819 820 820 821 822 823 823 825 826 828
827 828 829 830 830 830 830 831 830 829 829 829 829 828 828 828 828 828 828 827 827 827 827 827 826 824 824 823 822 822 821 821 820 819 818 818 817 816 816 815 815 814 814 814 814 814 814 815 815 815 815 815 817 818 819 821 821 821 820 820 821 823 825
829 830 831 832 832 832 833 833 832 832 831 831 830 830 829 829 829 829 829 828 828 828 827 827 826 825 824 823 823 822 821 821 820 819 819 818 817 817 816 815 815 814 814 814 814 813 814 814 814 814 814 814 815 816 818 820 819 818 817 817 818 818 819
832 833 833 834 835 835 835 835 835 834 833 832 832 831 831 830 830 829 829 829 828 828 828 827 826 825 825 824 823 822 821 820 820 819 818 818 817 816 815 815 814 814 814 813 813 813 813 813 812 813 813 813 813 814 816 817 816 815 814 813 813 813 814
833 835 835 836 837 837 837 838 837 836 835 834 833 833 832 831 830 829 829 829 829 828 828 826 826 825 824 824 823 822 821 820 819 819 817 816 816 815 814 814 814 813 813 813 812 812 812 811 811 811 811 811 811 812 813 812 811 811 810 809 809 810 810
833 835 836 837 839 839 839 839 838 837 837 835 834 834 833 832 831 830 829 829 828 828 827 826 826 825 824 823 822 822 821 820 819 818 817 815 815 814 813 813 813 812 813 812 811 811 811 810 810 810 809 809 809 809 810 809 808 807 806 805 806 806 806
833 835 837 838 839 839 840 840 839 839 838 837 836 835 834 833 832 831 830 829 828 828 827 826 826 825 824 824 822 821 820 819 818 817 816 815 815 814 813 813 812 812 812 811 810 810 810 809 809 809 808 808 807 807 807 806 806 806 805 803 802 802 803
833 834 836 838 839 839 840 839 839 839 838 837 837 836 835 834 833 832 831 830 829 828 827 827 826 826 825 824 823 821 820 819 818 817 816 815 814 814 813 812 812 811 811 810 810 809 809 809 808 808 808 807 806 805 805 804 804 804 804 802 801 800 800
831 833 835 837 838 838 839 839 839 838 838 837 836 835 835 834 833 832 831 830 829 829 828 827 826 825 825 823 822 821 820 819 818 816 815 815 814 813 812 812 811 811 811 811 810 809 808 808 807 806 807 806 805 804 803 802 802 803 803 802 800 799 799
830 832 834 835 836 838 838 838 838 837 836 836 835 834 834 833 833 832 831 830 829 828 828 827 826 825 825 823 822 820 819 818 817 816 815 814 813 812 811 811 811 811 810 809 809 808 807 806 805 805 805 803 803 802 801 799 800 800 801 800 800 799 798
829 831 833 834 835 836 837 837 837 836 835 835 834 834 833 833 832 831 830 830 829 828 827 827 826 825 825 824 822 821 819 818 817 815 814 813 812 811 811 810 810 810 809 808 808 807 806 805 804 803 803 802 801 801 799 798 798 798 798 798 797 797 796
828 830 831 832 834 835 835 835 835 835 834 834 833 833 833 832 831 831 830 829 828 827 827 826 825 824 824 823 822 821 820 818 817 815 814 813 812 811 810 809 809 809 809 808 807 805 804 803 802 802 801 801 800 799 798 797 796 796 796 795 794 793 792
827 828 830 831 832 833 833 833 833 834 834 833 833 832 832 831 830 830 829 828 827 827 826 825 824 823 822 822 821 821 820 819 817 816 814 813 811 810 809 808 807 807 807 807 806 805 803 802 801 801 800 799 798 797 796 795 794 794 793 792 791 790 789